Berlin, NH

2:06 PM EDT on July 28, 2017 (GMT -0400)
Berlin Municipal

Weather History for KBML - June, 2014

Change the Weather History Date:

Tuesday, June 10, 2014

  Actual Average Record
Temperature  
Mean Temperature 60 °F -  
Max Temperature 73 °F 68 °F 93 °F (2008)
Min Temperature 46 °F 41 °F 33 °F (2004)
Degree Days  
Heating Degree Days 6    
Growing Degree Days 10 (Base 50)    
Moisture  
Dew Point 55 °F    
Average Humidity 88    
Maximum Humidity 100    
Minimum Humidity 51    
Precipitation  
Precipitation 0.01 in - - ()
Sea Level Pressure  
Sea Level Pressure 30.01 in    
Wind  
Wind Speed 1 mph (NNE)    
Max Wind Speed 14 mph    
Max Gust Speed -    
Visibility 5 miles    
Events Fog , Rain    
Averages and records for this station are not official NWS values.
T = Trace of Precipitation, MM = Missing Value Source: NWS Daily Summary

Daily Weather History Graph

Daily Weather History Graph

Search for Another Location

Airport or City:

Trip Planner

Search our weather history database for the weather conditions in past years. The results will help you decide how hot, cold, wet, or windy it might be!

Date:

Astronomy

Jun. 10, 2014 Rise Set
Actual Time 4:59 AM EDT 8:29 PM EDT
Civil Twilight 4:22 AM EDT 9:05 PM EDT
Nautical Twilight 3:34 AM EDT 9:54 PM EDT
Astronomical Twilight 2:32 AM EDT 10:56 PM EDT
Moon 5:45 PM EDT (6/10) 3:10 AM EDT (6/10)
Length of Visible Light 16h 42m
Length of Day
15h 29m
Waxing Gibbous, 92% of the Moon is Illuminated
Jun 10
Waxing Gibbous
Jun 13
Full
Jun 19
Last Quarter
Jun 27
New
Jul 5
First Quarter

Hourly Weather History & Observations

Time (EDT) Temp. Dew Point Humidity Pressure Visibility Wind Dir Wind Speed Gust Speed Precip Events Conditions
12:10 AM 59.0 °F 59.0 °F 100% 29.98 in 1.0 mi Calm Calm - N/A   Mist
12:17 AM 57.9 °F 57.0 °F 97% 29.99 in 0.5 mi Calm Calm - N/A Fog Fog
12:23 AM 57.0 °F 57.0 °F 100% 29.99 in 2.0 mi Calm Calm - N/A   Scattered Clouds
12:31 AM 59.0 °F 57.0 °F 93% 29.98 in 5.0 mi Calm Calm - N/A   Scattered Clouds
12:52 AM 59.0 °F 57.9 °F 96% 29.96 in 6.0 mi Calm Calm - N/A   Partly Cloudy
1:05 AM 57.9 °F 57.9 °F 100% 29.97 in 1.8 mi Calm Calm - N/A   Partly Cloudy
1:14 AM 59.0 °F 57.0 °F 93% 29.97 in 2.5 mi Calm Calm - N/A   Mostly Cloudy
1:21 AM 57.0 °F 55.9 °F 96% 29.96 in 5.0 mi Calm Calm - N/A   Mostly Cloudy
1:25 AM 57.0 °F 55.9 °F 96% 29.97 in 1.8 mi Calm Calm - N/A   Mostly Cloudy
1:27 AM 57.0 °F 55.9 °F 96% 29.97 in 0.8 mi Calm Calm - N/A   Mist
1:38 AM 57.0 °F 57.0 °F 100% 29.97 in 0.2 mi Calm Calm - N/A Fog Fog
1:52 AM 57.9 °F 57.9 °F 100% 29.96 in 0.5 mi Calm Calm - N/A Fog Fog
1:57 AM 57.0 °F 57.0 °F 100% 29.97 in 1.5 mi Calm Calm - N/A   Overcast
2:01 AM 57.9 °F 57.0 °F 97% 29.97 in 3.0 mi Calm Calm - N/A   Overcast
2:15 AM 59.0 °F 57.9 °F 96% 29.97 in 1.8 mi Calm Calm - N/A   Overcast
2:22 AM 59.0 °F 57.9 °F 96% 29.97 in 1.0 mi Calm Calm - N/A   Overcast
2:29 AM 57.9 °F 57.0 °F 97% 29.97 in 2.0 mi Calm Calm - N/A   Overcast
2:52 AM 57.9 °F 57.0 °F 97% 29.96 in 5.0 mi Calm Calm - N/A   Overcast
2:59 AM 57.9 °F 57.0 °F 97% 29.97 in 3.0 mi Calm Calm - N/A   Overcast
3:52 AM 59.0 °F 57.9 °F 96% 29.96 in 4.0 mi Calm Calm - 0.00 in Rain Light Rain
4:52 AM 57.0 °F 57.0 °F 100% 29.97 in 4.0 mi SE 3.5 mph - 0.01 in Rain Light Rain
5:01 AM 57.0 °F 55.9 °F 96% 29.98 in 2.5 mi Calm Calm - 0.00 in   Scattered Clouds
5:10 AM 57.9 °F 57.0 °F 97% 29.98 in 5.0 mi Calm Calm - 0.00 in   Partly Cloudy
5:52 AM 59.0 °F 57.9 °F 96% 29.98 in 2.5 mi Calm Calm - 0.00 in   Overcast
5:59 AM 60.1 °F 59.0 °F 96% 29.99 in 4.0 mi Calm Calm - N/A   Overcast
6:52 AM 61.0 °F 59.0 °F 93% 29.99 in 5.0 mi NNW 3.5 mph - N/A   Mostly Cloudy
7:52 AM 64.9 °F 60.1 °F 84% 29.99 in 10.0 mi Calm Calm - N/A   Clear
8:52 AM 68.0 °F 52.0 °F 56% 29.99 in 10.0 mi Calm Calm - N/A   Overcast
11:52 AM 73.0 °F 54.0 °F 51% 30.00 in 10.0 mi North 10.4 mph - N/A   Overcast
12:52 PM 70.0 °F 52.0 °F 53% 30.01 in 10.0 mi North 13.8 mph - N/A   Overcast
1:52 PM 64.9 °F 51.1 °F 61% 30.04 in 10.0 mi North 11.5 mph - N/A   Overcast
2:52 PM 62.1 °F 54.0 °F 75% 30.06 in 7.0 mi NW 4.6 mph - 0.00 in Rain Light Rain
4:15 PM 64.9 °F 55.0 °F 70% 30.06 in 10.0 mi Variable 3.5 mph - N/A   Overcast
5:08 PM 66.0 °F 54.0 °F 65% 30.08 in 10.0 mi NE 5.8 mph - N/A   Overcast
5:28 PM 64.9 °F 53.1 °F 65% 30.08 in 10.0 mi East 4.6 mph - N/A   Overcast
5:52 PM 64.9 °F 53.1 °F 65% 30.08 in 10.0 mi East 4.6 mph - N/A   Overcast
7:52 PM 61.0 °F 54.0 °F 78% 30.11 in 10.0 mi Calm Calm - N/A   Mostly Cloudy
8:52 PM 55.9 °F 54.0 °F 93% 30.12 in 10.0 mi Calm Calm - N/A   Clear
9:52 PM 51.1 °F 50.0 °F 96% 30.14 in 10.0 mi Calm Calm - N/A   Clear
10:52 PM 50.0 °F 48.0 °F 93% 30.15 in 10.0 mi Calm Calm - N/A   Clear
11:42 PM 46.0 °F 45.0 °F 96% 30.15 in 10.0 mi Calm Calm - N/A   Scattered Clouds
11:52 PM 46.9 °F 45.0 °F 93% 30.16 in 10.0 mi Calm Calm - N/A   Mostly Cloudy